Location: Olsztyn
(53.7767°N, 20.4765°E)
Time: 20:45:18
(UTC+02:00)

Envisat - Pass Details

Date: 01 March 2024
Orbit: 762 x 764 km, 98.3° (Epoch: 20 April)

Event Time Altitude Azimuth Distance (km) Brightness Sun altitude
Rises 04:37:37 0° 9° (N) 3,246 6.5 -16.7°
Reaches altitude 10° 04:40:13 10° 358° (N) 2,315 5.6 -16.3°
Maximum altitude 04:44:27 28° 302° (WNW) 1,428 4.0 -15.7°
Enters shadow 04:45:54 24° 274° (W) 1,554 4.0 -15.5°
